Other Public Products
Issued by NWS Charleston, SC

Current Version | Previous Version | Graphics & Text | Print | Product List | Glossary On
Versions: 1 2 3 4 5 6 7 8 9 10 11 12 13 14 15 16 17 18 19 20 21 22 23 24 25 26 27 28 29 30 31 32 33 34 35 36 37 38 39 40 41 42 43 44 45 46 47 48 49 50
634
FPUS82 KCHS 280127
OPUCHS

TEST...KCHS/KSAV Gateway Observations...TEST
National Weather Service Charleston SC
900 PM EDT THU JUL 27 2017

NOTE: "fair" indicates few or no clouds below 12,000 feet with no
significant weather and/or obstructions to visibility.

SCZ050-WAZ558-NCZ071-TXZ119-213-PAZ071-DCZ001-FLZ074-172-MI076-
NYZ176-178-MAZ016-IL014-TNZ027-NJZ106-GAZ044-MD014-280200-

...Gateway Observations for Charleston International...

CITY           SKY/WX    TMP DP  RH WIND       PRES   REMARKS
Chas Airport   MOCLDY    79  74  84 S6        29.95S
Seattle        MOSUNNY   69  54  58 VRB5      30.12F
Charlotte      CLOUDY    82  73  74 SW3       29.96R
Dallas DFW     MOCLDY    95  66  38 S13       29.86F HX  98
Dallas Love    MOCLDY    97  64  33 S10       29.87F HX  99
Philladelphia  CLOUDY    77  71  82 S3        29.89R
Wash National  CLOUDY    83  76  79 S6        29.86S HX  91
Baltimore      MOCLDY    79  75  87 S6        29.86F
Miami          MOCLDY    86  73  65 E6        30.00R HX  93
Detroit        PTCLDY    77  64  64 NE13      29.92R
Newark         MOCLDY    77  68  73 CALM      29.89S
Laguardia      CLOUDY    76  71  85 S6        29.88F
J F K          CLOUDY    75  72  90 S15       29.89F
Boston Logan   CLOUDY    68  65  90 SW9       29.87R
Ft. Lauderdale MOCLDY    85  75  72 SE6       29.99R HX  93
Chicago O`Hare PTCLDY    74  57  55 N15       29.95R
Chicago Midway PTCLDY    74  62  66 N18       29.94R
Houston Bush   PTCLDY    88  73  61 S6        29.94S HX  95
Houston Hobby  PTCLDY    89  72  56 S8        29.95R HX  96
Nashville      CLOUDY    86  71  60 W5        29.92R HX  91
Atlanta        CLOUDY    78  73  84 CALM      29.98F

$$

GAZ044-118-TXZ119-213-NCZ071-DCZ001-MDZ014-506-PAZ021-071-NJZ106-
NYZ176-178-MAZ106-OHZ011-021-055-MIZ076-KYZ091-ILZ014-INZ047-
MNZ060-ONZ431-280200-

...Gateway Observations for Savannah International...

CITY           SKY/WX    TMP DP  RH WIND       PRES   REMARKS
Savannah Arpt  MOCLDY    80  74  81 S3        29.95R
Atlanta        CLOUDY    78  73  84 CALM      29.98F
Charlotte      CLOUDY    82  73  74 SW3       29.96R
Dallas DFW     MOCLDY    95  66  38 S13       29.86F HX  98
Houston Bush   PTCLDY    88  73  61 S6        29.94S HX  95
Wash National  CLOUDY    83  76  79 S6        29.86S HX  91
Wash Dulles    LGT RAIN  76  72  87 S3        29.86F
Baltimore      MOCLDY    79  75  87 S6        29.86F
Philadelphia   CLOUDY    77  71  82 S3        29.89R
Newark         MOCLDY    77  68  73 CALM      29.89S
Laguardia      CLOUDY    76  71  85 S6        29.88F
J F K          CLOUDY    75  72  90 S15       29.89F
Boston         CLOUDY    68  65  90 SW9       29.87R
Pittsburg      TSTM      73  71  93 W10       29.92R FOG
Akron          MOCLDY    73  67  81 SW7       29.91R
Cleveland      PTCLDY    77  66  68 N7        29.91R
Cincinnati     RAIN      74  74 100 W8        29.89R FOG
Columbus       CLOUDY    70  70 100 NE7       29.86S
Detroit        PTCLDY    77  64  64 NE13      29.92R
Chicago O`Hare PTCLDY    74  57  55 N15       29.95R
Minneapolis    PTCLDY    82  57  42 NE8       30.02S
Indianapolis   MOCLDY    77  72  84 W6        29.87S
Toronto Canada PTCLDY    72  59  64 N16       29.91R

$$




USA.gov is the U.S. government's official web portal to all federal, state and local government web resources and services.